Regional Weather Roundup
Issued by NWS

Home | Current Version | Previous Version | Graphics & Text | Print | Product List | Glossary On
Versions: 1 2 3 4 5 6 7 8 9 10 11 12 13 14 15 16 17 18 19 20 21 22 23 24 25 26 27 28 29 30 31 32 33 34 35 36 37 38 39 40 41 42 43 44 45 46 47 48 49 50
000
ASUS43 KTOP 281908
RWRKS

WEATHER ROUNDUP FOR KANSAS
NATIONAL WEATHER SERVICE GOODLAND KS
200 PM CDT THU MAY 28 2015

NOTE:  "FAIR" INDICATES FEW OR NO CLOUDS BELOW 12,000 FEET WITH NO
SIGNIFICANT WEATHER AND/OR OBSTRUCTIONS TO VISIBILITY.

KSZ001>006-013>018-027>032-041>047-282000-
NORTHWEST KANSAS

CITY           SKY/WX    TMP DP  RH WIND       PRES   REMARKS
GOODLAND       PTSUNNY   73  59  61 S16G24    29.98F
HAYS           CLOUDY    73  61  64 SE12G18   30.01F
HILL CITY      MOSUNNY   76  60  57 SE12      29.99F
RUSSELL        CLOUDY    75  63  66 SE14      29.99F
$$

KSZ061>065-074>080-084>089-282000-
SOUTHWEST KANSAS

CITY           SKY/WX    TMP DP  RH WIND       PRES   REMARKS
DODGE CITY     PTSUNNY   78  56  46 S15       30.01F
ELKHART          N/A     78  59  52 S14         N/A
GARDEN CITY    CLOUDY    73  57  57 S18G28    30.00F
GREAT BEND     PTSUNNY   73  64  73 SE9       30.01F
LIBERAL        PTSUNNY   79  63  57 S17G26    29.99F
PRATT          PTSUNNY   77  57  50 S9        30.03S
$$

KSZ066>073-081>083-090>101-282000-
SOUTHEAST KANSAS

CITY           SKY/WX    TMP DP  RH WIND       PRES   REMARKS
CHANUTE        LGT RAIN  68  65  90 SE9G24    30.09F
COFFEYVILLE    LGT RAIN  68  65  90 E5        30.08F
HUTCHINSON     CLOUDY    73  63  70 SE17      30.04F
MEDICINE LODGE   N/A     77  63  61 SE10      30.01R
NEWTON         CLOUDY    72  63  73 S14       30.08R
PARSONS        RAIN      68  65  90 S5        30.11F
WICHITA INTL   CLOUDY    74  64  71 S21       30.04F
WICHITA JABRA  CLOUDY    73  63  70 S13G30    30.05S
WICHITA MCCONL CLOUDY    74  64  71 SE18      30.05F
WINFIELD       CLOUDY    73  65  75 SE18G24   30.05F
$$

KSZ007>012-019>026-033>040-048>060-102>105-282000-
NORTHEAST KANSAS

CITY           SKY/WX    TMP DP  RH WIND       PRES   REMARKS
CONCORDIA      CLOUDY    73  64  73 S18G25    29.99F
EMPORIA        CLOUDY    70  64  81 S15G26    30.05F
LAWRENCE       CLOUDY    71  64  78 S15       30.06F
MANHATTAN      CLOUDY    72  65  78 S9        30.03S
MARYSVILLE     CLOUDY    70  64  83 S12G18    30.02F
OLATHE IND     LGT RAIN  68  66  93 S8        30.09F
OLATHE EXE     LGT RAIN  68  66  93 SW7       30.08F
SALINA         CLOUDY    74  65  73 S17       30.03F
TOPEKA BILLARD CLOUDY    71  67  87 SE9       30.07S
TOPEKA FORBES  CLOUDY    72  67  84 S10       30.06F
$$


USA.gov is the U.S. government's official web portal to all federal, state and local government web resources and services.